Dauntless Aviation
Airports North America Canada
CYLW
YLW

Kelowna International Airport

Kelowna, BC, CANADA

Airport Info
Suggest Updated Information for this Airport

Location

Latitude / Longitude: 49°53'0"N / 119°29'35"W
  49°53.016'N / 119°29.598'W
  49.8836 / -119.4933

Nearby radio navigation aids

EX RUTLAND NDB. 335.5° 1.0nm from EX to field.
LW KELOWNA NDB. 147.1° 6.5nm from LW to field.

Runway Information

Runway 16 /34

Dimensions: 7300 x 200 ft.
Surface: ASP
 
Runway 16
Runway 34
Latitude: 49.966 49.946278
Longitude: -119.378961 -119.376461
Elevation: 1409 ft. 1409 ft.
Runway true heading: 166.6 346.6
 

Instrument Procedures

  Aerodrome Chart
  Parking Areas
  CAC: Aerodrome Chart
  CAC: Parking Areas - Apron I
  CAC: Parking Areas - Apron III

IAPs (Instrument Approach Procedures)

  CFS: KELOWNA VFR Terminal Procedures Chart
  CFS: KELOWNA VFR Terminal Procedures Chart - Night Circuit Procedure
  CFS: Aerodrome Information
  CFS: Aerodrome Information (Part 2)
  DATBO ONE ARR (DATBO.DATBO 1)
  LENUR ONE ARR (LENUR.LENUR 1)
  RNAV (GNSS) A
  NDB B (GNSS)
  ILS/DME 1 Rwy 16
  Night Circuit Procedures
  KELOWNA FIVE DEP (YLW 5.)

Departure Procedures

  Departure Procedure
Satellite photo at:
Airport distance calculator
From:
Weather Reports

METAR

CYLW

CYLW 241500Z AUTO 34003KT 3SM BR OVC005 M01/M01 A3001 RMK SLP181
CWUS
20.0nm S
CWUS 241500Z AUTO 29003KT M01/M01 RMK AO1 SLP181 T10051012 51011
CWJV
23.3nm N
CWJV 241500Z AUTO 00000KT M02/M02 RMK AO1 SLP178 T10231023 51010
CYYF
25.3nm S
CYYF 241500Z 00000KT 3SM BR OVC008 01/00 A3002 RMK ST8 SLP183

TAF

CYLW
TAF CYLW 241242Z 2413/2501 VRB03KT 6SM BR SCT004 OVC020 TEMPO 2413/2417 2SM BR BKN004 OVC040 PROB30 2413/2416 1SM BR FM241700 36006KT 2SM BR SCT006 BKN012 OVC030 TEMPO 2417/2421 P6SM NSW SCT012 OVC030 FM242100 34006KT P6SM SCT020 BKN040 RMK FCST BASED ON AUTO OBS. NXT FCST BY 241900Z
CYYF
25.3nm S
TAF CYYF 241242Z 2413/2501 VRB03KT 2SM BR OVC003 TEMPO 2413/2416 6SM BR SCT003 OVC030 FM241600 36008KT P6SM SCT012 BKN060 TEMPO 2416/2420 BKN012 OVC060 PROB30 2416/2418 BKN008 RMK NXT FCST BY 241900Z
Safelog

 

Dauntless Aviation

© 2007-2017 Dauntless Aviation, all rights reserved
Information provided via PilotNav comes from a variety of official and unofficial data sources. As errors are possible, do not use PilotNav for primary flight planning purposes. Verify any information that you receive via PilotNav with current and canonical charts and other official documents. The material in this database is subject to database copyrights held by Dauntless Aviation and may not be copied without the express permission of Dauntless Aviation - licenses for use of part of all of this data are available for purchase; enquire via the Dauntless Aviation helpdesk. A number of mechanisms and markers exist in the database to protect against and identify infringement / copyright. Automated queries against this website are stictly prohibited, and all activity is logged and analyzed.